Temperature
30 31 32 32 32 32 32 32 31 30 29 29 29 30 29 29 28 27 26 25 24 23 22 22 21 20 20 20 19 19 18 18 18 18 18 17 17 17 17 17 17 16 16 16
29 31 32 32 32 32 32 32 32 31 30 30 29 29 29 28 28 27 26 25 24 23 22 21 21 20 20 19 19 19 18 18 18 17 17 17 17 17 16 16 16 16 16 16
28 30 31 30 32 32 32 32 32 30 30 30 29 28 28 28 27 27 26 25 24 23 22 21 20 20 20 19 19 18 18 18 17 17 17 17 16 16 16 16 16 16 16 15
28 28 27 30 33 32 32 31 32 31 30 30 28 27 27 26 26 26 25 24 23 23 22 21 20 20 19 19 18 18 18 17 17 17 17 17 16 16 16 15 15 15 15 15
27 28 28 30 31 31 31 30 30 30 30 29 28 27 26 25 25 24 24 23 23 22 22 21 20 20 19 19 18 18 17 17 17 17 17 16 16 15 15 15 15 15 15 14
27 26 27 28 30 30 31 28 29 29 28 27 27 27 25 24 24 23 23 23 22 22 21 20 20 19 19 18 18 17 17 17 17 17 16 16 15 15 15 15 14 14 14 14
26 26 27 27 28 29 28 26 27 27 27 26 25 25 23 23 23 22 22 22 21 21 20 20 19 19 18 18 17 17 17 17 17 16 16 16 15 15 14 14 14 14 14 13
25 25 25 26 27 26 24 25 25 25 25 24 23 22 22 21 21 21 21 21 20 20 19 19 18 18 18 17 17 17 17 16 16 16 15 15 15 14 14 14 14 13 13 13
25 24 24 24 24 24 24 24 24 24 23 23 22 21 21 20 20 20 20 20 19 19 18 18 18 17 17 17 16 16 16 16 15 15 15 15 14 14 14 13 13 13 13 12
24 24 24 24 23 23 23 23 23 23 23 22 22 21 20 20 19 19 19 18 18 18 17 17 17 17 16 16 16 15 15 15 14 14 14 14 14 13 13 13 13 12 12 12
23 23 23 23 23 23 22 22 22 22 22 21 21 20 19 19 18 18 18 17 17 17 17 16 16 16 16 15 15 15 15 14 14 14 13 13 13 13 13 12 12 12 12 12
22 22 22 22 22 21 21 21 21 21 21 20 20 19 19 18 18 17 17 16 16 16 16 16 15 15 15 15 15 15 14 14 14 13 13 13 13 12 12 12 12 12 12 12
21 21 21 21 21 20 20 20 20 20 19 19 19 18 18 17 17 16 16 16 15 15 15 15 15 14 14 14 14 14 14 14 13 13 13 12 12 12 12 11 11 11 11 11
20 20 20 20 20 20 20 19 19 19 18 18 18 17 17 17 16 16 15 15 15 15 14 14 14 14 14 14 14 13 13 13 13 13 12 12 12 11 11 11 11 10 10 10
19 19 19 19 19 19 19 19 18 18 18 17 17 16 16 16 16 15 15 14 14 14 14 14 13 13 13 13 13 13 13 13 13 12 12 12 11 11 11 11 10 10 10 10
19 19 19 18 18 18 18 18 18 17 17 16 16 16 15 15 14 14 14 14 13 13 13 13 13 13 13 13 12 12 12 12 12 12 12 11 11 11 11 10 10 10 9 9
18 18 18 18 17 18 17 17 17 16 16 15 15 15 14 14 14 13 13 13 13 13 12 12 12 12 12 12 12 12 12 12 12 12 11 11 11 11 10 10 10 9 9 9
17 17 17 17 17 16 16 16 16 15 15 14 14 14 14 13 13 13 13 12 12 12 12 12 12 12 12 12 12 11 11 11 11 11 11 11 10 10 10 10 10 9 9 9
16 17 17 16 16 16 15 15 15 15 14 14 14 13 13 13 13 12 12 12 12 11 11 11 11 11 11 11 11 11 11 11 11 11 10 10 10 10 10 10 10 9 9 9
15 15 15 15 15 15 15 14 14 14 13 13 13 13 12 12 12 12 12 11 11 11 11 11 11 11 11 11 11 11 11 11 10 10 10 10 10 10 10 10 10 9 9 9
14 14 14 14 14 14 13 13 13 13 13 12 12 12 12 12 11 11 11 11 11 11 11 11 10 10 10 11 11 11 10 10 10 10 10 10 10 10 10 10 10 9 9 9
13 13 13 13 13 12 12 12 12 12 12 11 11 11 11 11 11 11 11 10 10 10 10 10 10 10 10 10 10 10 10 10 10 10 10 10 10 10 10 10 10 10 9 9
12 12 12 12 11 11 11 11 11 11 11 11 11 11 11 11 11 10 10 10 10 10 10 10 10 10 10 10 10 10 10 10 10 10 10 10 10 10 10 10 10 10 9 9
11 11 11 11 11 11 10 10 10 10 10 10 10 10 10 10 10 10 10 10 9 9 9 10 10 10 10 10 10 10 10 10 10 10 10 10 10 10 10 10 10 10 9 9
10 10 10 10 10 10 10 10 10 10 10 10 10 10 10 10 10 9 9 9 9 9 9 9 9 10 10 10 10 10 10 10 10 10 10 10 10 10 10 10 10 9 9 9
10 10 10 10 10 9 10 10 10 10 10 10 10 10 10 10 9 9 9 9 9 9 9 9 9 10 10 10 10 10 10 10 10 10 10 10 10 10 10 9 9 9 9 9
10 10 10 9 9 10 10 10 10 10 10 10 10 10 10 9 9 9 9 9 9 9 9 9 10 10 10 10 10 10 10 10 10 10 10 10 9 9 9 9 9 9 9 9
Wind_Speed
16 15 12 13 15 15 15 14 12 5 4 4 4 5 7 7 8 9 9 9 8 7 7 6 6 7 6 6 7 7 7 6 5 4 4 3 3 3 3 4 4 4 3 4
16 17 15 14 13 13 14 13 12 8 3 4 5 5 5 6 6 7 7 8 8 8 8 7 6 6 6 6 6 6 6 6 6 5 5 4 4 4 4 4 4 4 4 4
13 15 14 16 12 12 12 10 9 6 3 5 6 6 4 4 5 5 5 6 7 8 8 7 7 6 6 6 7 7 6 6 6 6 5 4 4 4 4 4 5 5 5 5
12 12 15 11 9 9 8 6 4 3 3 6 7 7 5 4 4 5 4 4 5 5 6 7 7 7 6 7 7 7 7 6 6 6 6 5 5 5 4 5 5 5 5 5
11 13 13 9 6 7 7 3 1 2 4 6 6 7 6 6 6 4 4 4 4 4 6 6 6 6 6 6 7 7 6 6 6 6 6 6 5 5 4 5 6 6 5 5
10 11 10 3 3 5 6 4 3 3 4 5 3 3 3 5 5 4 5 5 4 5 6 6 6 6 6 6 6 6 6 6 6 6 6 6 6 5 5 5 6 6 6 6
13 12 6 4 5 5 5 2 4 5 6 6 4 4 6 7 6 6 7 6 7 6 6 6 6 6 5 5 5 5 6 6 6 6 6 6 6 5 5 6 6 6 6 6
12 13 5 7 2 2 6 7 8 7 8 9 9 9 9 8 7 7 6 7 7 7 7 6 5 5 5 5 5 6 7 7 7 6 5 5 6 5 5 6 7 6 6 5
2 1 5 8 8 7 7 6 6 7 8 8 8 7 7 7 6 6 6 6 6 7 6 5 4 4 5 5 5 7 7 7 6 6 5 5 5 5 5 4 4 5 5 5
2 5 5 5 7 6 6 6 6 6 6 6 6 5 6 6 5 5 5 5 6 6 6 5 5 5 5 5 6 7 7 7 6 6 5 4 3 3 3 2 3 4 4 5
2 2 3 4 5 6 7 6 6 6 6 5 5 5 5 5 5 5 5 5 5 5 5 5 5 5 5 4 5 7 7 7 6 6 6 6 6 5 4 5 3 2 3 4
0 3 2 4 5 5 4 4 5 5 5 4 4 5 5 4 5 4 5 5 5 5 5 5 5 5 5 4 4 6 6 6 6 5 6 6 7 8 13 10 12 13 12 8
4 4 4 3 3 3 2 2 3 4 4 4 4 4 4 5 5 4 5 5 5 5 5 5 6 5 4 3 4 5 5 5 5 6 6 6 6 6 6 8 13 13 12 12
4 3 2 2 2 2 1 2 3 3 3 4 4 4 4 4 4 4 4 4 5 5 6 6 6 5 4 4 5 5 5 6 5 5 5 5 5 5 6 6 6 5 7 9
2 2 2 2 2 1 0 1 2 2 3 3 4 4 4 4 5 5 5 5 6 6 6 6 6 5 4 5 5 5 5 4 4 5 5 5 5 5 5 6 6 6 5 4
2 2 2 2 2 2 1 1 2 2 3 3 4 5 5 5 5 5 5 5 5 6 5 5 5 5 4 5 5 5 5 7 5 5 5 5 5 5 5 6 6 6 5 5
3 4 3 3 2 2 1 1 2 3 3 3 3 4 4 5 5 5 5 5 6 6 5 5 5 5 5 5 5 4 5 6 6 5 4 4 4 4 4 5 5 5 5 6
5 4 4 3 1 1 1 2 2 3 3 3 3 3 3 4 4 4 5 6 6 6 6 5 6 5 5 5 4 4 4 4 4 5 5 4 4 4 4 4 5 5 5 6
4 4 3 2 1 2 1 2 2 3 4 3 3 3 4 4 4 5 6 6 7 6 6 6 6 5 5 5 4 4 4 4 5 5 4 5 3 3 3 4 4 4 5 5
3 2 1 1 2 2 2 3 3 4 3 4 4 4 5 5 5 5 6 5 4 5 6 6 5 5 5 4 3 3 4 4 5 5 4 4 3 3 3 3 4 4 4 4
2 1 1 2 3 4 3 3 4 4 4 5 5 5 5 5 5 5 5 5 5 5 5 6 4 4 4 2 1 3 4 4 4 4 4 3 3 3 3 3 4 4 3 3
2 1 2 4 4 4 3 3 4 4 5 4 4 4 5 5 6 6 5 4 5 4 4 4 4 4 2 0 2 3 3 3 3 3 3 2 3 2 2 2 3 3 2 2
2 2 3 4 4 5 4 4 5 5 5 5 4 4 4 4 4 5 4 4 5 4 3 4 5 5 3 0 1 2 3 3 3 3 3 2 2 2 2 2 2 1 1 2
3 3 4 5 5 6 5 6 6 5 5 5 4 4 4 4 4 5 6 7 6 5 4 5 5 3 0 1 1 2 2 2 2 1 2 2 1 1 1 1 1 1 1 2
3 4 5 6 6 5 6 6 6 6 5 5 6 6 5 5 6 6 7 7 7 6 6 5 3 2 1 1 2 2 2 2 1 1 1 1 1 1 1 1 1 1 1 1
5 4 5 5 5 5 5 4 4 4 4 5 5 5 6 6 8 7 6 7 7 5 4 4 4 3 2 1 2 2 2 3 2 1 1 1 1 1 0 0 1 0 0 1
6 5 5 5 5 4 4 4 5 5 4 5 6 5 6 6 6 6 6 5 5 4 4 3 2 2 1 2 3 2 1 1 1 1 2 2 2 2 2 1 1 1 1 1
Wind_Direction
263 269 258 227 226 231 236 248 259 243 198 154 159 142 130 133 135 141 146 143 141 141 137 138 137 141 144 141 139 139 136 136 136 128 123 120 118 114 109 109 112 103 96 85
253 260 260 253 230 226 234 241 248 254 220 149 135 127 126 132 138 141 150 151 151 151 150 152 151 150 145 140 135 132 135 139 134 126 124 123 119 115 110 108 109 106 104 92
252 250 254 251 241 233 231 235 238 243 177 146 130 116 118 135 138 130 143 144 152 154 154 157 159 157 152 145 143 142 141 140 137 135 127 120 119 114 110 109 107 104 99 98
254 255 247 247 248 241 239 234 231 167 139 121 112 106 92 85 108 120 116 128 133 143 143 151 155 154 150 148 146 147 146 143 141 135 129 121 118 114 113 111 109 104 102 99
250 247 243 242 245 239 222 192 31 87 102 104 107 117 93 67 66 82 105 99 116 131 137 136 138 142 145 148 148 149 149 145 142 134 128 123 120 114 110 109 107 102 99 98
249 253 248 264 268 264 231 175 57 64 88 102 113 157 104 85 85 81 83 94 97 108 114 119 122 129 136 143 144 151 148 140 136 132 128 125 121 119 116 112 106 105 99 94
244 251 256 338 338 295 231 118 53 63 73 83 70 74 87 80 83 82 82 84 92 94 100 109 118 125 132 136 136 131 121 116 118 122 123 121 119 118 120 117 111 106 100 93
235 245 246 11 38 47 66 53 51 56 64 77 77 80 87 83 75 74 80 84 90 88 90 96 112 123 126 121 114 114 116 116 114 113 118 121 120 119 122 126 124 120 114 104
216 180 75 53 68 71 77 71 63 67 67 84 92 96 95 88 82 77 75 81 89 93 92 92 101 116 121 118 117 117 117 116 113 108 105 115 126 134 143 150 144 137 136 127
103 113 96 81 79 69 66 63 65 68 69 76 92 100 107 106 98 89 84 83 87 92 95 89 84 93 108 119 124 127 126 125 124 120 115 107 108 116 123 128 138 142 140 134
183 136 105 78 73 69 64 56 61 59 62 66 83 94 99 98 95 95 93 84 86 92 95 92 89 91 99 114 131 134 136 137 134 127 118 95 74 53 64 58 64 99 124 128
135 64 72 83 67 61 59 50 52 59 57 60 79 96 100 98 99 97 94 88 88 94 98 97 93 89 86 94 125 137 139 139 134 133 127 120 112 85 56 63 63 65 66 79
55 42 43 51 52 43 43 46 56 59 63 66 68 80 91 105 109 104 100 97 99 100 101 99 98 92 87 101 117 131 135 132 133 135 136 136 135 129 114 77 65 65 71 80
43 32 4 358 357 24 47 62 79 77 71 75 75 78 82 96 100 98 96 102 105 104 104 106 103 99 96 102 108 112 123 122 126 131 137 139 137 135 135 134 122 95 75 85
5 337 306 286 279 291 136 147 137 121 105 91 85 86 84 87 92 88 87 100 109 109 107 108 105 99 96 103 107 110 112 116 118 118 120 122 127 126 123 126 123 123 121 105
316 312 312 295 272 252 230 133 115 105 92 85 86 86 84 87 88 92 95 102 107 107 105 102 103 105 106 106 107 105 96 92 106 116 118 121 125 128 128 131 131 133 136 135
279 280 279 280 284 268 205 110 113 119 113 95 83 87 99 104 100 96 102 106 105 105 107 107 105 106 109 114 114 112 115 115 116 121 123 124 126 125 126 131 133 138 145 152
267 268 264 268 271 266 191 139 134 127 113 115 118 101 109 117 114 107 103 105 105 98 97 101 105 106 103 101 100 108 116 128 131 123 121 120 127 133 137 141 147 151 148 154
272 257 242 206 197 214 193 122 124 117 119 122 123 123 122 119 114 116 115 116 115 107 96 96 101 112 107 97 99 113 119 122 118 115 119 124 143 148 149 154 152 148 143 151
304 288 265 172 152 154 140 131 124 115 117 127 127 119 115 114 114 117 111 101 99 110 116 115 115 109 111 107 97 121 121 120 122 127 133 151 160 157 160 154 149 147 155 166
313 316 148 125 113 108 107 111 120 124 126 127 126 123 123 119 120 121 117 108 101 108 121 126 122 118 116 115 178 145 137 136 138 142 148 159 159 155 153 148 147 158 171 173
4 30 97 105 104 103 102 109 115 118 118 117 118 118 119 120 119 110 101 105 118 120 133 124 115 104 85 144 159 132 127 134 140 143 150 154 148 147 147 147 152 162 169 176
51 79 104 109 111 110 104 105 108 111 115 111 111 113 112 116 123 121 117 112 119 113 106 98 97 96 68 122 127 120 124 136 141 139 142 143 144 144 138 147 155 163 181 202
108 116 118 117 117 113 107 101 99 100 105 107 110 116 119 118 115 107 109 110 104 105 99 106 111 105 164 164 112 106 105 99 95 103 122 126 126 134 143 161 180 190 190 204
123 124 126 126 123 118 118 118 116 119 120 114 111 107 103 101 104 104 109 116 125 121 116 129 151 192 229 146 114 119 120 106 95 59 81 100 153 142 142 168 175 181 223 245
123 122 123 124 121 125 128 126 124 122 122 118 111 108 104 103 107 113 117 122 125 129 132 144 162 192 209 160 115 113 115 119 117 134 39 20 21 34 54 355 129 98 349 291
121 120 120 121 125 131 130 127 119 116 115 112 107 100 100 103 106 111 115 121 129 133 129 136 142 157 141 114 105 101 100 101 98 73 69 45 17 13 6 346 349 4 329 300
Height
1475 1469 1466 1469 1472 1472 1476 1478 1483 1484 1487 1486 1486 1486 1489 1492 1496 1499 1504 1508 1511 1515 1517 1519 1521 1523 1525 1526 1528 1529 1529 1530 1531 1532 1533 1534 1535 1535 1536 1537 1538 1539 1540 1541
1479 1470 1466 1468 1465 1468 1471 1471 1474 1478 1483 1480 1484 1487 1490 1493 1496 1499 1503 1507 1511 1514 1517 1519 1521 1523 1524 1525 1526 1528 1529 1530 1531 1532 1533 1533 1534 1534 1535 1535 1536 1537 1538 1539
1485 1473 1471 1477 1466 1466 1467 1467 1471 1479 1481 1479 1484 1488 1492 1494 1497 1499 1503 1507 1510 1512 1515 1517 1520 1522 1523 1524 1526 1527 1528 1529 1530 1531 1532 1533 1533 1534 1534 1534 1535 1536 1537 1538
1485 1483 1495 1474 1458 1459 1464 1467 1468 1472 1475 1480 1485 1490 1494 1496 1497 1500 1503 1506 1509 1511 1513 1516 1519 1520 1522 1523 1525 1526 1527 1528 1530 1531 1531 1532 1533 1533 1534 1534 1535 1536 1537 1538
1486 1488 1482 1468 1461 1461 1467 1473 1472 1474 1477 1482 1486 1491 1496 1498 1499 1501 1504 1506 1509 1511 1513 1515 1517 1519 1521 1522 1524 1525 1526 1527 1529 1530 1530 1531 1532 1533 1533 1534 1534 1535 1536 1537
1487 1492 1491 1476 1464 1464 1467 1479 1476 1478 1481 1485 1488 1493 1499 1500 1501 1502 1505 1507 1508 1511 1512 1514 1516 1518 1520 1521 1523 1524 1525 1526 1528 1529 1530 1530 1531 1532 1533 1534 1534 1535 1536 1537
1488 1490 1482 1474 1469 1469 1483 1489 1481 1482 1485 1489 1492 1496 1500 1500 1502 1504 1506 1507 1509 1511 1512 1514 1515 1517 1519 1520 1522 1523 1524 1525 1527 1528 1529 1530 1531 1532 1533 1533 1534 1535 1535 1537
1486 1491 1492 1479 1475 1482 1488 1486 1485 1488 1490 1492 1495 1497 1500 1502 1504 1505 1507 1508 1509 1511 1512 1514 1515 1517 1518 1519 1521 1522 1523 1524 1525 1527 1528 1529 1530 1531 1532 1533 1534 1535 1536 1537
1482 1488 1486 1484 1485 1487 1488 1490 1491 1492 1494 1496 1497 1500 1502 1504 1506 1507 1508 1509 1510 1511 1512 1514 1515 1516 1517 1519 1520 1521 1522 1523 1524 1525 1527 1528 1529 1531 1532 1533 1534 1535 1536 1537
1482 1484 1487 1488 1489 1491 1492 1493 1494 1496 1497 1498 1500 1502 1504 1506 1507 1508 1509 1510 1511 1512 1512 1514 1515 1516 1517 1518 1519 1520 1521 1522 1524 1525 1526 1527 1529 1530 1531 1532 1534 1535 1535 1536
1483 1486 1488 1491 1492 1494 1495 1496 1497 1498 1499 1501 1502 1504 1505 1507 1508 1509 1510 1511 1511 1512 1512 1513 1514 1515 1516 1517 1518 1518 1520 1521 1523 1524 1526 1527 1528 1529 1530 1532 1533 1534 1535 1536
1487 1490 1491 1494 1495 1496 1497 1498 1499 1500 1502 1503 1504 1505 1506 1507 1508 1509 1510 1511 1511 1512 1512 1512 1513 1514 1515 1516 1517 1518 1519 1520 1522 1524 1525 1526 1527 1528 1530 1531 1533 1534 1534 1535
1489 1492 1493 1495 1497 1498 1499 1500 1501 1502 1503 1504 1505 1506 1506 1507 1508 1509 1510 1510 1511 1511 1512 1512 1513 1514 1515 1516 1516 1518 1519 1520 1521 1523 1525 1526 1527 1528 1529 1531 1532 1533 1534 1535
1492 1494 1496 1497 1498 1499 1500 1501 1502 1503 1504 1504 1505 1506 1506 1507 1508 1509 1509 1510 1511 1511 1512 1512 1513 1514 1514 1515 1516 1517 1518 1520 1521 1523 1524 1525 1527 1528 1529 1530 1531 1532 1534 1535
1494 1496 1497 1498 1499 1500 1500 1501 1502 1503 1504 1505 1505 1506 1507 1507 1508 1508 1509 1510 1511 1511 1512 1513 1513 1514 1515 1516 1516 1517 1518 1520 1521 1522 1524 1526 1527 1528 1529 1530 1532 1533 1534 1535
1495 1496 1497 1498 1499 1500 1500 1501 1502 1503 1504 1505 1505 1506 1507 1508 1508 1509 1509 1510 1511 1511 1512 1513 1514 1515 1516 1516 1517 1518 1519 1520 1521 1522 1524 1525 1527 1529 1530 1531 1532 1533 1535 1536
1496 1497 1497 1498 1498 1499 1500 1501 1502 1503 1504 1505 1505 1506 1507 1508 1509 1509 1510 1511 1511 1511 1512 1513 1514 1515 1516 1516 1517 1518 1519 1520 1522 1523 1524 1526 1527 1529 1530 1531 1533 1534 1535 1536
1496 1497 1497 1498 1498 1500 1499 1500 1502 1503 1504 1504 1505 1506 1507 1508 1508 1509 1510 1511 1511 1512 1513 1513 1514 1515 1516 1517 1518 1519 1520 1521 1522 1524 1525 1527 1528 1529 1531 1532 1533 1534 1535 1537
1494 1495 1496 1497 1498 1498 1499 1500 1501 1502 1503 1504 1505 1506 1506 1507 1508 1509 1510 1511 1511 1512 1513 1514 1515 1516 1517 1518 1519 1520 1521 1522 1523 1524 1526 1527 1529 1530 1531 1532 1533 1534 1536 1536
1493 1493 1494 1495 1497 1498 1498 1499 1501 1501 1502 1503 1504 1505 1506 1507 1508 1509 1510 1511 1512 1513 1513 1514 1516 1517 1517 1518 1520 1521 1522 1524 1524 1525 1527 1528 1529 1530 1532 1533 1534 1535 1536 1537
1492 1493 1493 1494 1496 1497 1498 1499 1500 1501 1502 1503 1504 1505 1506 1507 1508 1509 1510 1512 1512 1513 1514 1515 1516 1517 1518 1519 1520 1522 1524 1525 1526 1527 1528 1529 1530 1531 1532 1533 1534 1535 1536 1537
1492 1492 1493 1494 1495 1496 1498 1499 1499 1501 1502 1503 1504 1505 1506 1507 1508 1509 1511 1512 1513 1514 1515 1516 1517 1518 1519 1520 1522 1523 1524 1526 1527 1528 1529 1530 1531 1531 1532 1533 1534 1535 1535 1536
1491 1491 1492 1494 1495 1496 1498 1499 1500 1501 1502 1503 1504 1505 1507 1508 1509 1510 1511 1512 1513 1514 1516 1517 1517 1519 1520 1521 1523 1524 1525 1526 1528 1529 1529 1530 1531 1532 1532 1533 1534 1534 1535 1535
1491 1491 1492 1494 1495 1496 1498 1499 1501 1502 1503 1504 1505 1506 1507 1509 1510 1511 1512 1513 1514 1515 1517 1517 1519 1520 1521 1523 1524 1525 1526 1527 1528 1529 1530 1531 1531 1532 1533 1533 1533 1534 1534 1534
1491 1492 1493 1495 1496 1497 1499 1501 1502 1503 1505 1506 1507 1508 1509 1510 1511 1512 1513 1514 1516 1517 1518 1519 1520 1522 1523 1524 1525 1526 1527 1528 1529 1530 1531 1531 1532 1532 1532 1533 1533 1534 1533 1534
1492 1493 1494 1496 1497 1499 1500 1502 1503 1505 1506 1507 1508 1510 1511 1512 1513 1514 1515 1517 1518 1519 1520 1521 1523 1524 1525 1526 1527 1528 1529 1529 1530 1531 1531 1532 1532 1532 1533 1533 1533 1533 1533 1532
1493 1495 1496 1498 1499 1501 1502 1503 1504 1506 1507 1509 1510 1512 1513 1514 1515 1517 1518 1519 1520 1522 1523 1523 1525 1526 1526 1527 1528 1529 1529 1530 1530 1531 1531 1532 1532 1532 1532 1532 1532 1531 1531 1531